Hourly Data Report for June 19, 2020

TRENTON A
ONTARIO
Current Station Operator: DND

44°04'10.000" N
77°20'17.000" W
86.30 m
6158875
71621
YTR

Download Data

Hourly Data (June 2020)
Hourly Data Report for June 19, 2020
TIME
LST
Temp Definition
°C
Dew Point Definition
°C
Rel Hum Definition
%
Precip. Amount Definition
mm

Wind Dir Definition
10's deg

Wind Spd Definition
km/h
Visibility Definition
km
Stn Press Definition
kPa
Hmdx Definition


Wind Chill Definition


Weather Definition


00:00 21.6 18.1 80   13 8 24.1 100.71 28   Mainly Clear
01:00 21.2 18.3 84   16 9 24.1 100.68 27   Mainly Clear
02:00 20.3 18.5 89   15 5 24.1 100.68 27   Mainly Clear
03:00 19.5 18.3 93   17 4 24.1 100.68     Mainly Clear
04:00 19.1 18.4 96   15 8 24.1 100.72     Mainly Clear
05:00 18.9 18.3 96   14 5 24.1 100.73     Mainly Clear
06:00 19.6 18.3 92   19 4 24.1 100.76     Mainly Clear
07:00 21.7 18.3 81   22 9 24.1 100.76 28   Mainly Clear
08:00 22.5 17.9 75   23 9 24.1 100.76 28   Mainly Clear
09:00 23.2 17.1 69   22 11 24.1 100.73 29   Mainly Clear
10:00 24.4 17.2 64   23 8 24.1 100.74 30   Mainly Clear
11:00 25.6 17.1 59   20 11 24.1 100.73 31   Mainly Clear
12:00 24.8 17.5 64   22 17 24.1 100.70 30   Mainly Clear
13:00 25.5 17.7 62   22 21 24.1 100.67 31   Mainly Clear
14:00 26.0 17.3 59   21 15 24.1 100.63 31   Mainly Clear
15:00 26.7 16.8 55   22 13 24.1 100.58 32   Mainly Clear
16:00 27.4 17.0 53   22 13 24.1 100.55 33   Mainly Clear
17:00 27.9 17.4 53   23 11 24.1 100.52 33   Mainly Clear
18:00 26.9 15.7 50   22 9 24.1 100.54 31   Mainly Clear
19:00 26.4 16.8 56   22 8 24.1 100.55 32   Mainly Clear
20:00 24.7 17.2 63   22 5 24.1 100.57 30   Mainly Clear
21:00 22.7 18.3 76     0 24.1 100.60 29   Mainly Clear
22:00 19.3 16.9 86   1 4 24.1 100.60     Mainly Clear
23:00 20.2 18.0 87   19 5 24.1 100.57 26   Mainly Clear

Notes on Data Quality.

Legend

  • E = Estimated
  • M = Missing
  • NA = Not Available*
  • [empty] = Indicates an unobserved value
Date modified: